User: anonymous   Login
Location: Newark
(34.0111°N, 88.4892°W)
Time: 07:41:08
(UTC+00:00)
Language:

Max Valier Satellite - Orbit

View from above orbital plane
View from above orbital plane
View from above satellite
View from above satellite

Ground track
Ground track

The orbit data is extracted from the following two-line orbital elements,

1 42778U 17036P   20157.71012451 +.00000913 +00000-0 +42166-4 0  9997
2 42778 097.3056 211.6704 0013860 067.6675 292.6030 15.22604132163947
Epoch (UTC): 05 June 2020 17:02:34
Eccentricity: 0.0013860
inclination: 97.3056°
perigee height: 488 km
apogee height: 507 km
right ascension of ascending node: 211.6704°
argument of perigee: 67.6675°
revolutions per day: 15.22604132
mean anomaly at epoch: 292.6030°
orbit number at epoch: 16394

The dashed part of the orbit path shows where the satellite is in the earth's shadow,  

DLR